カタログに戻る

FENGYUN 1C DEB

運用中SSO
NORAD 29976·DEBRIS·🇨🇳 China

打ち上げ May 10, 1999 から Taiyuan Satellite Launch Center

Loading…

次のパス (今後24時間)

TLE

最新Source: Space-Track

元期: Sep 13, 2026, 13:33 UTC

1 29976U 99025LA  26256.56477080  .00000073  00000-0  60103-4 0  9990
2 29976  98.9315 251.8038 0267385 199.4259 281.2327 13.98364849  1772

AllMySatでFENGYUN 1C DEBをリアルタイム追跡

Download on the App Store